Weather past 2 weeks in Bantam, Cocos Islands

Now
79 °F

Passing clouds.


Feels Like: 82 °F
Forecast: 79 / 83 °F
Wind: 17 mph from East

Location: Cocos Island Airport

Current Time: Aug 1, 2015 at 4:38:15 AM

Latest Report: Aug 1, 2015 at 4:00 AM


Visibility: N/A

Pressure: 29.92 "Hg

Humidity: 79%

Dew point: 72 °F

Location of BantamLocation

Historic Weather in Bantam — Graph

°F

Bantam temperature yesterday

Maximum temperature yesterday: 84 °F (at 10:30 AM)
Minimum temperature yesterday: 75 °F (at 12:30 AM)
Average temperature yesterday: 81 °F

Past Weeks' High & Low Weather Summary

 TemperatureHumidityPressure
High84 °F (Jul 17, 12:00 PM)94% (Jul 17, 5:30 AM)30.04 "Hg (Jul 17, 5:30 AM)
Low72 °F (Jul 26, 4:00 AM)62% (Jul 26, 2:00 PM)29.80 "Hg (Jul 17, 2:30 PM)
Average81 °F77%29.92 "Hg
* Reported Jul 17 3:32 AM — Aug 1 3:30 AM, Bantam, Weather by CustomWeather, © 2015

Note: Actual official high and low records may vary slightly from our data, if they occured in-between our weather recording intervals... More about our weather records

Advertising

Bantam weather history for previous 24 hours

 ConditionsComfort  
Time TempWeatherWind HumidityBarometerVisibility
3:30 AM
Sat, Aug 1
81 °FPassing clouds.14 mph74%29.92 "HgN/A
3:00 AM79 °FClear.16 mph74%29.92 "HgN/A
2:30 AM81 °FPassing clouds.15 mph70%29.92 "HgN/A
2:00 AM81 °FPassing clouds.15 mph74%29.92 "HgN/A
1:30 AM81 °FPartly cloudy.16 mph74%29.95 "HgN/A
1:00 AM81 °FPassing clouds.14 mph74%29.95 "HgN/A
12:30 AM81 °FWarm.16 mph70%29.95 "HgN/A
12:00 AM81 °FPassing clouds.15 mph74%29.95 "HgN/A
11:30 PM
Fri, Jul 31
79 °FPassing clouds.15 mph84%29.95 "HgN/A
11:00 PM81 °FPartly cloudy.17 mph74%29.98 "HgN/A
10:30 PM81 °FPartly cloudy.17 mph79%29.98 "HgN/A
10:00 PM81 °FPartly cloudy.20 mph79%29.98 "HgN/A
9:30 PM81 °FPassing clouds.14 mph74%29.98 "HgN/A
9:00 PM81 °FPassing clouds.14 mph74%29.98 "HgN/A
8:30 PM81 °FPassing clouds.14 mph79%29.95 "HgN/A
8:00 PM81 °FWarm.12 mph79%29.95 "HgN/A
7:30 PM81 °FMostly cloudy.17 mph74%29.95 "HgN/A
7:00 PM81 °FPartly cloudy.14 mph74%29.92 "HgN/A
6:30 PM81 °FBroken clouds.16 mph79%29.92 "HgN/A
6:00 PM81 °FCloudy.15 mph79%29.92 "HgN/A
5:30 PM81 °FPartly sunny.15 mph74%29.89 "HgN/A
5:00 PM81 °FCloudy.15 mph79%29.89 "HgN/A
4:30 PM81 °FScattered showers. Scattered clouds.14 mph84%29.89 "HgN/A
4:00 PM84 °FPassing clouds.15 mph70%29.89 "HgN/A
3:30 PM82 °FPassing clouds.17 mph74%29.89 "HgN/A
3:00 PM82 °FPassing clouds.15 mph74%29.89 "HgN/A
2:30 PM84 °FPassing clouds.17 mph70%29.89 "HgN/A
2:00 PM84 °FPassing clouds.16 mph70%29.92 "HgN/A
1:30 PM84 °FPassing clouds.16 mph70%29.92 "HgN/A
1:00 PM84 °FPartly sunny.16 mph70%29.92 "HgN/A
12:30 PM84 °FPassing clouds.16 mph70%29.95 "HgN/A
12:00 PM84 °FSunny.17 mph70%29.95 "HgN/A
11:30 AM84 °FPassing clouds.16 mph66%29.95 "HgN/A
11:00 AM82 °FPassing clouds.15 mph74%29.95 "HgN/A
10:30 AM84 °FPassing clouds.16 mph66%29.98 "HgN/A
10:00 AM82 °FPassing clouds.18 mph74%29.98 "HgN/A
9:30 AM82 °FScattered clouds.16 mph74%29.98 "HgN/A
9:00 AM82 °FScattered clouds.15 mph70%29.98 "HgN/A
8:30 AM82 °FScattered clouds.16 mph70%29.98 "HgN/A
8:00 AM82 °FScattered clouds.16 mph70%29.95 "HgN/A
7:30 AM81 °FScattered clouds.14 mph79%29.95 "HgN/A
7:00 AM81 °FPassing clouds.15 mph74%29.95 "HgN/A
6:30 AM81 °FPassing clouds.17 mph74%29.92 "HgN/A
6:00 AM81 °FPassing clouds.16 mph74%29.92 "HgN/A
5:30 AM81 °FPassing clouds.16 mph74%29.92 "HgN/A
5:00 AM81 °FPassing clouds.16 mph79%29.92 "HgN/A
4:30 AM79 °FPassing clouds.13 mph84%29.92 "HgN/A
4:00 AM81 °FPassing clouds.15 mph79%29.92 "HgN/A
Weather by CustomWeather, © 2015

See weather overviewHow to use our weather pages